RS30S (SXC3-217 SIREN)

Last updated on Wed Jul 12 2023 00:03:08 GMT+0000 (Coordinated Universal Time)

1 53384U 22096Q 23192.45513989 .00017910 00000+0 50526-3 0 9991 2 53384 97.4128 98.5914 0002799 16.2055 343.9278 15.36452650 51399

Satellite not in orbit

RS30S (SXC3-217 SIREN)